Time,TemperatureF,DewpointF,PressureIn,WindDirection,WindDirectionDegrees,WindSpeedMPH,WindSpeedGustMPH,Humidity,HourlyPrecipIn,Conditions,Clouds,dailyrainin,SoftwareType,DateUTC
2013-01-31 00:00:00,16.5,8.1,29.31,NE,45,0.0,0.0,69,0.01,,,0.13,meteohub,2013-01-31 05:00:00,
2013-01-31 00:01:00,16.5,8.1,29.31,NE,45,0.0,0.0,69,0.01,,,0.13,meteohub,2013-01-31 05:01:00,
2013-01-31 00:06:00,16.5,8.1,29.32,East,90,0.0,0.0,69,0.01,,,0.13,meteohub,2013-01-31 05:06:00,
2013-01-31 00:11:00,16.3,7.7,29.32,ENE,68,0.0,0.0,68,0.01,,,0.13,meteohub,2013-01-31 05:11:00,
2013-01-31 00:16:00,16.3,7.7,29.32,East,90,0.0,0.0,68,0.01,,,0.13,meteohub,2013-01-31 05:16:00,
2013-01-31 00:21:00,16.3,7.7,29.33,NE,45,0.0,0.0,68,0.01,,,0.13,meteohub,2013-01-31 05:21:00,
2013-01-31 00:26:00,16.2,7.5,29.33,NE,45,0.0,0.0,68,0.01,,,0.13,meteohub,2013-01-31 05:26:00,
2013-01-31 00:31:00,16.2,7.5,29.34,East,90,0.0,0.0,68,0.01,,,0.13,meteohub,2013-01-31 05:31:00,
2013-01-31 00:36:00,16.0,7.0,29.34,East,90,0.0,0.0,67,0.00,,,0.13,meteohub,2013-01-31 05:36:00,
2013-01-31 00:41:00,16.0,7.0,29.34,NE,45,0.0,0.0,67,0.00,,,0.13,meteohub,2013-01-31 05:41:00,
2013-01-31 00:46:00,15.8,6.8,29.35,NE,45,0.0,0.0,67,0.00,,,0.13,meteohub,2013-01-31 05:46:00,
2013-01-31 00:51:00,15.6,7.0,29.36,ENE,68,0.0,0.0,68,0.00,,,0.13,meteohub,2013-01-31 05:51:00,
2013-01-31 00:56:00,15.4,6.8,29.36,NE,45,0.0,0.0,68,0.00,,,0.13,meteohub,2013-01-31 05:56:00,
2013-01-31 01:01:00,15.4,7.2,29.35,NE,45,0.0,0.0,69,0.00,,,0.13,meteohub,2013-01-31 06:01:00,
2013-01-31 01:06:00,15.4,7.2,29.36,NE,45,0.0,0.0,69,0.00,,,0.13,meteohub,2013-01-31 06:06:00,
2013-01-31 01:11:00,15.3,6.3,29.36,East,90,0.0,0.0,67,0.00,,,0.13,meteohub,2013-01-31 06:11:00,
2013-01-31 01:16:00,15.1,6.1,29.36,East,90,0.0,0.0,67,0.00,,,0.13,meteohub,2013-01-31 06:16:00,
2013-01-31 01:21:00,15.3,5.9,29.36,East,90,0.0,0.0,66,0.00,,,0.13,meteohub,2013-01-31 06:21:00,
2013-01-31 01:27:00,15.1,5.4,29.37,East,90,0.0,0.0,65,0.00,,,0.13,meteohub,2013-01-31 06:27:00,
2013-01-31 01:32:00,15.1,5.2,29.37,NE,45,0.0,0.0,64,0.00,,,0.13,meteohub,2013-01-31 06:32:00,
2013-01-31 01:37:00,15.1,5.2,29.38,NE,45,0.0,0.0,64,0.00,,,0.13,meteohub,2013-01-31 06:37:00,
2013-01-31 01:42:00,15.1,5.2,29.38,NE,45,0.0,0.0,64,0.00,,,0.13,meteohub,2013-01-31 06:42:00,
2013-01-31 01:47:00,14.9,4.6,29.38,ENE,68,0.0,0.0,63,0.00,,,0.13,meteohub,2013-01-31 06:47:00,
2013-01-31 01:52:00,14.9,4.6,29.39,NE,45,0.0,0.0,63,0.00,,,0.13,meteohub,2013-01-31 06:52:00,
2013-01-31 01:57:00,14.7,4.8,29.39,NE,45,0.0,0.0,64,0.00,,,0.13,meteohub,2013-01-31 06:57:00,
2013-01-31 02:02:00,14.7,5.2,29.39,East,90,0.0,0.0,65,0.00,,,0.13,meteohub,2013-01-31 07:02:00,
2013-01-31 02:07:00,14.7,5.2,29.39,NE,45,0.0,0.0,65,0.00,,,0.13,meteohub,2013-01-31 07:07:00,
2013-01-31 02:12:00,14.5,5.2,29.40,NE,45,0.0,0.0,66,0.00,,,0.13,meteohub,2013-01-31 07:12:00,
2013-01-31 02:17:00,14.4,5.4,29.40,East,90,0.0,0.0,67,0.00,,,0.13,meteohub,2013-01-31 07:17:00,
2013-01-31 02:22:00,14.4,5.7,29.40,ENE,68,0.0,0.0,68,0.00,,,0.13,meteohub,2013-01-31 07:22:00,
2013-01-31 02:27:00,14.2,5.5,29.40,East,90,0.0,0.0,68,0.00,,,0.13,meteohub,2013-01-31 07:27:00,
2013-01-31 02:32:00,14.2,5.9,29.41,NE,45,0.0,0.0,69,0.00,,,0.13,meteohub,2013-01-31 07:32:00,
2013-01-31 02:37:00,14.2,5.9,29.41,NE,45,0.0,0.0,69,0.00,,,0.13,meteohub,2013-01-31 07:37:00,
2013-01-31 02:42:00,14.2,6.3,29.41,NE,45,0.0,0.0,70,0.00,,,0.13,meteohub,2013-01-31 07:42:00,
2013-01-31 02:47:00,14.2,6.3,29.42,NE,45,0.0,0.0,70,0.00,,,0.13,meteohub,2013-01-31 07:47:00,
2013-01-31 02:52:00,14.2,6.3,29.41,NE,45,0.0,0.0,70,0.00,,,0.13,meteohub,2013-01-31 07:52:00,
2013-01-31 02:57:00,14.2,6.3,29.42,East,90,0.0,0.0,70,0.00,,,0.13,meteohub,2013-01-31 07:57:00,
2013-01-31 03:02:00,14.2,6.3,29.42,NE,45,0.0,0.0,70,0.00,,,0.13,meteohub,2013-01-31 08:02:00,
2013-01-31 03:07:00,14.2,6.3,29.42,East,90,0.0,0.0,70,0.00,,,0.13,meteohub,2013-01-31 08:07:00,
2013-01-31 03:12:00,14.2,6.4,29.42,NE,45,0.0,0.0,71,0.00,,,0.13,meteohub,2013-01-31 08:12:00,
2013-01-31 03:17:00,14.4,6.6,29.42,NE,45,0.0,0.0,71,0.00,,,0.13,meteohub,2013-01-31 08:17:00,
2013-01-31 03:22:00,14.4,6.6,29.43,NE,45,0.0,0.0,71,0.00,,,0.13,meteohub,2013-01-31 08:22:00,
2013-01-31 03:27:00,14.5,6.8,29.43,NE,45,0.0,0.0,71,0.00,,,0.13,meteohub,2013-01-31 08:27:00,
2013-01-31 03:32:00,14.5,6.8,29.43,NE,45,0.0,0.0,71,0.00,,,0.13,meteohub,2013-01-31 08:32:00,
2013-01-31 03:37:00,14.5,6.6,29.43,NE,45,0.0,0.0,70,0.00,,,0.13,meteohub,2013-01-31 08:37:00,
2013-01-31 03:42:00,14.4,6.4,29.43,NE,45,0.0,0.0,70,0.00,,,0.13,meteohub,2013-01-31 08:42:00,
2013-01-31 03:47:00,14.4,6.1,29.43,ENE,68,0.0,0.0,69,0.00,,,0.13,meteohub,2013-01-31 08:47:00,
2013-01-31 03:52:00,14.4,5.7,29.43,NE,45,0.0,0.0,68,0.00,,,0.13,meteohub,2013-01-31 08:52:00,
2013-01-31 03:57:00,14.4,5.7,29.44,NE,45,0.0,0.0,68,0.00,,,0.13,meteohub,2013-01-31 08:57:00,
2013-01-31 04:02:00,14.4,5.7,29.44,NE,45,0.0,0.0,68,0.00,,,0.13,meteohub,2013-01-31 09:02:00,
2013-01-31 04:07:00,14.5,5.9,29.44,NE,45,0.0,0.0,68,0.00,,,0.13,meteohub,2013-01-31 09:07:00,
2013-01-31 04:12:00,14.5,5.9,29.44,NE,45,0.0,0.0,68,0.00,,,0.13,meteohub,2013-01-31 09:12:00,
2013-01-31 04:16:00,14.5,5.9,29.44,ENE,68,0.0,0.0,68,0.00,,,0.13,meteohub,2013-01-31 09:16:00,
2013-01-31 04:22:00,14.5,5.5,29.44,NE,45,0.0,0.0,67,0.00,,,0.13,meteohub,2013-01-31 09:22:00,
2013-01-31 04:27:00,14.5,5.5,29.44,NE,45,0.0,0.0,67,0.00,,,0.13,meteohub,2013-01-31 09:27:00,
2013-01-31 04:32:00,14.4,5.0,29.45,ENE,68,0.0,0.0,66,0.00,,,0.13,meteohub,2013-01-31 09:32:00,
2013-01-31 04:37:00,14.4,5.0,29.45,NE,45,0.0,0.0,66,0.00,,,0.13,meteohub,2013-01-31 09:37:00,
2013-01-31 04:42:00,14.4,5.0,29.45,NE,45,0.0,0.0,66,0.00,,,0.13,meteohub,2013-01-31 09:42:00,
2013-01-31 04:47:00,14.4,5.4,29.45,NE,45,0.0,0.0,67,0.00,,,0.13,meteohub,2013-01-31 09:47:00,
2013-01-31 04:52:00,14.4,5.4,29.46,NE,45,0.0,0.0,67,0.00,,,0.13,meteohub,2013-01-31 09:52:00,
2013-01-31 04:57:00,14.4,5.0,29.46,NE,45,0.0,0.0,66,0.00,,,0.13,meteohub,2013-01-31 09:57:00,
2013-01-31 05:02:00,14.2,5.0,29.46,NE,45,0.0,0.0,66,0.00,,,0.13,meteohub,2013-01-31 10:02:00,
2013-01-31 05:07:00,14.2,5.2,29.46,NE,45,0.0,0.0,67,0.00,,,0.13,meteohub,2013-01-31 10:07:00,
2013-01-31 05:12:00,14.2,5.2,29.47,NE,45,0.0,0.0,67,0.00,,,0.13,meteohub,2013-01-31 10:12:00,
2013-01-31 05:17:00,14.2,5.2,29.47,NE,45,0.0,0.0,67,0.00,,,0.13,meteohub,2013-01-31 10:17:00,
2013-01-31 05:22:00,14.2,5.2,29.47,NE,45,0.0,0.0,67,0.00,,,0.13,meteohub,2013-01-31 10:22:00,
2013-01-31 05:27:00,14.2,5.0,29.47,NE,45,0.0,0.0,66,0.00,,,0.13,meteohub,2013-01-31 10:27:00,
2013-01-31 05:32:00,14.2,5.0,29.47,NE,45,0.0,0.0,66,0.00,,,0.13,meteohub,2013-01-31 10:32:00,
2013-01-31 05:37:00,14.2,4.6,29.48,NE,45,0.0,0.0,65,0.00,,,0.13,meteohub,2013-01-31 10:37:00,
2013-01-31 05:41:00,14.2,4.6,29.48,NE,45,0.0,0.0,65,0.00,,,0.13,meteohub,2013-01-31 10:41:00,
2013-01-31 05:46:00,14.2,4.3,29.48,East,90,0.0,0.0,64,0.00,,,0.13,meteohub,2013-01-31 10:46:00,
2013-01-31 05:51:00,14.2,4.3,29.48,NE,45,0.0,0.0,64,0.00,,,0.13,meteohub,2013-01-31 10:51:00,
2013-01-31 05:56:00,14.2,4.3,29.48,NE,45,0.0,0.0,64,0.00,,,0.13,meteohub,2013-01-31 10:56:00,
2013-01-31 06:02:00,14.2,4.3,29.49,ENE,68,0.0,0.0,64,0.00,,,0.13,meteohub,2013-01-31 11:02:00,
2013-01-31 06:07:00,14.0,4.5,29.49,NE,45,0.0,0.0,65,0.00,,,0.13,meteohub,2013-01-31 11:07:00,
2013-01-31 06:12:00,14.0,4.5,29.49,NE,45,0.0,0.0,65,0.00,,,0.13,meteohub,2013-01-31 11:12:00,
2013-01-31 06:17:00,14.0,4.5,29.49,NE,45,0.0,0.0,65,0.00,,,0.13,meteohub,2013-01-31 11:17:00,
2013-01-31 06:22:00,14.0,4.5,29.50,NE,45,0.0,0.0,65,0.00,,,0.13,meteohub,2013-01-31 11:22:00,
2013-01-31 06:27:00,14.0,4.1,29.50,NE,45,0.0,0.0,64,0.00,,,0.13,meteohub,2013-01-31 11:27:00,
2013-01-31 06:32:00,14.0,3.7,29.50,NE,45,0.0,0.0,63,0.00,,,0.13,meteohub,2013-01-31 11:32:00,
2013-01-31 06:37:00,14.0,3.7,29.50,NE,45,0.0,0.0,63,0.00,,,0.13,meteohub,2013-01-31 11:37:00,
2013-01-31 06:42:00,14.0,3.4,29.50,NE,45,0.0,0.0,62,0.00,,,0.13,meteohub,2013-01-31 11:42:00,
2013-01-31 06:47:00,14.0,3.4,29.51,NE,45,0.0,0.0,62,0.00,,,0.13,meteohub,2013-01-31 11:47:00,
2013-01-31 06:52:00,14.2,3.9,29.51,NE,45,0.0,0.0,63,0.00,,,0.13,meteohub,2013-01-31 11:52:00,
2013-01-31 06:57:00,14.2,3.9,29.51,NE,45,0.0,0.0,63,0.00,,,0.13,meteohub,2013-01-31 11:57:00,
2013-01-31 07:02:00,14.0,3.7,29.52,NE,45,0.0,0.0,63,0.00,,,0.13,meteohub,2013-01-31 12:02:00,
2013-01-31 07:07:00,14.0,3.7,29.52,NE,45,0.0,0.0,63,0.00,,,0.13,meteohub,2013-01-31 12:07:00,
2013-01-31 07:12:00,14.2,3.9,29.52,NE,45,0.0,0.0,63,0.00,,,0.13,meteohub,2013-01-31 12:12:00,
2013-01-31 07:17:00,14.2,3.9,29.52,NE,45,0.0,0.0,63,0.00,,,0.13,meteohub,2013-01-31 12:17:00,
2013-01-31 07:22:00,14.2,3.2,29.52,NE,45,0.0,0.0,61,0.00,,,0.13,meteohub,2013-01-31 12:22:00,
2013-01-31 07:27:00,14.2,2.8,29.53,NE,45,0.0,0.0,60,0.00,,,0.13,meteohub,2013-01-31 12:27:00,
2013-01-31 07:32:00,14.2,2.8,29.53,NE,45,0.0,0.0,60,0.00,,,0.13,meteohub,2013-01-31 12:32:00,
2013-01-31 07:37:00,14.2,3.2,29.53,NE,45,0.0,0.0,61,0.00,,,0.13,meteohub,2013-01-31 12:37:00,
2013-01-31 07:42:00,14.0,3.0,29.54,NE,45,0.0,0.0,61,0.00,,,0.13,meteohub,2013-01-31 12:42:00,
2013-01-31 07:47:00,14.0,3.0,29.54,ENE,68,0.0,0.0,61,0.00,,,0.13,meteohub,2013-01-31 12:47:00,
2013-01-31 07:52:00,14.0,3.4,29.55,NE,45,0.0,0.0,62,0.00,,,0.13,meteohub,2013-01-31 12:52:00,
2013-01-31 07:57:00,14.0,3.0,29.55,NE,45,0.0,0.0,61,0.00,,,0.13,meteohub,2013-01-31 12:57:00,
2013-01-31 08:02:00,14.0,3.4,29.56,NE,45,0.0,0.0,62,0.00,,,0.13,meteohub,2013-01-31 13:02:00,
2013-01-31 08:07:00,13.8,3.6,29.56,NE,45,0.0,0.0,63,0.00,,,0.13,meteohub,2013-01-31 13:07:00,
2013-01-31 08:12:00,13.8,3.6,29.56,East,90,0.0,0.0,63,0.00,,,0.13,meteohub,2013-01-31 13:12:00,
2013-01-31 08:17:00,13.8,3.6,29.56,NE,45,0.0,0.0,63,0.00,,,0.13,meteohub,2013-01-31 13:17:00,
2013-01-31 08:22:00,13.6,3.0,29.56,NE,45,0.0,0.0,62,0.00,,,0.13,meteohub,2013-01-31 13:22:00,
2013-01-31 08:27:00,13.6,3.0,29.57,ENE,68,0.0,0.0,62,0.00,,,0.13,meteohub,2013-01-31 13:27:00,
2013-01-31 08:32:00,13.6,3.0,29.57,NE,45,0.0,0.0,62,0.00,,,0.13,meteohub,2013-01-31 13:32:00,
2013-01-31 08:37:00,13.6,3.0,29.57,NE,45,0.0,0.0,62,0.00,,,0.13,meteohub,2013-01-31 13:37:00,
2013-01-31 08:42:00,13.6,3.4,29.57,North,0,0.0,0.0,63,0.00,,,0.13,meteohub,2013-01-31 13:42:00,
2013-01-31 08:47:00,13.6,3.0,29.58,NE,45,0.0,0.0,62,0.00,,,0.13,meteohub,2013-01-31 13:47:00,
2013-01-31 08:52:00,13.6,3.0,29.58,NE,45,0.0,0.0,62,0.00,,,0.13,meteohub,2013-01-31 13:52:00,
2013-01-31 08:57:00,13.6,3.0,29.58,NE,45,0.0,0.0,62,0.00,,,0.13,meteohub,2013-01-31 13:57:00,
2013-01-31 09:02:00,13.6,3.0,29.59,NE,45,0.0,0.0,62,0.00,,,0.13,meteohub,2013-01-31 14:02:00,
2013-01-31 09:10:00,13.8,3.9,29.59,NE,45,0.0,0.0,64,0.00,,,0.13,meteohub,2013-01-31 14:10:00,
2013-01-31 09:15:00,13.8,3.9,29.60,NE,45,0.0,0.0,64,0.00,,,0.13,meteohub,2013-01-31 14:15:00,
2013-01-31 09:20:00,13.8,3.9,29.60,NE,45,0.0,0.0,64,0.00,,,0.13,meteohub,2013-01-31 14:20:00,
2013-01-31 09:25:00,13.8,3.9,29.60,NE,45,0.0,0.0,64,0.00,,,0.13,meteohub,2013-01-31 14:25:00,
2013-01-31 09:30:00,13.8,3.9,29.60,NE,45,0.0,0.0,64,0.00,,,0.13,meteohub,2013-01-31 14:30:00,
2013-01-31 09:35:00,14.0,3.7,29.60,NE,45,0.0,0.0,63,0.00,,,0.13,meteohub,2013-01-31 14:35:00,
2013-01-31 09:40:00,14.2,3.2,29.60,NE,45,0.0,0.0,61,0.00,,,0.13,meteohub,2013-01-31 14:40:00,
2013-01-31 09:45:00,14.4,2.7,29.60,East,90,0.0,0.0,59,0.00,,,0.13,meteohub,2013-01-31 14:45:00,
2013-01-31 09:50:00,14.4,2.3,29.60,NE,45,0.0,0.0,58,0.00,,,0.13,meteohub,2013-01-31 14:50:00,
2013-01-31 09:55:00,14.4,2.3,29.61,NE,45,0.0,0.0,58,0.00,,,0.13,meteohub,2013-01-31 14:55:00,
2013-01-31 10:00:00,14.4,2.3,29.61,NE,45,0.0,0.0,58,0.00,,,0.13,meteohub,2013-01-31 15:00:00,
2013-01-31 10:05:00,14.5,2.8,29.62,NE,45,0.0,0.0,59,0.00,,,0.13,meteohub,2013-01-31 15:05:00,
2013-01-31 10:10:00,14.7,3.0,29.62,NE,45,0.0,0.0,59,0.00,,,0.13,meteohub,2013-01-31 15:10:00,
2013-01-31 10:15:00,14.7,3.4,29.62,NE,45,0.0,0.0,60,0.00,,,0.13,meteohub,2013-01-31 15:15:00,
2013-01-31 10:20:00,14.7,3.7,29.62,NE,45,0.0,0.0,61,0.00,,,0.13,meteohub,2013-01-31 15:20:00,
2013-01-31 10:25:00,14.9,3.9,29.62,North,0,0.0,0.0,61,0.00,,,0.13,meteohub,2013-01-31 15:25:00,
2013-01-31 10:31:00,14.9,3.9,29.62,East,90,0.0,0.0,61,0.00,,,0.13,meteohub,2013-01-31 15:31:00,
2013-01-31 10:36:00,14.9,3.2,29.62,East,90,0.0,0.0,59,0.00,,,0.13,meteohub,2013-01-31 15:36:00,
2013-01-31 10:41:00,15.1,3.7,29.63,NE,45,0.0,0.0,60,0.00,,,0.13,meteohub,2013-01-31 15:41:00,
2013-01-31 10:46:00,15.3,3.9,29.63,East,90,0.0,0.0,60,0.00,,,0.13,meteohub,2013-01-31 15:46:00,
2013-01-31 10:51:00,15.3,3.6,29.63,NE,45,0.0,0.0,59,0.00,,,0.13,meteohub,2013-01-31 15:51:00,
2013-01-31 10:56:00,15.1,3.7,29.64,NE,45,15.0,20.0,60,0.00,,,0.13,meteohub,2013-01-31 15:56:00,
2013-01-31 11:01:00,15.1,3.7,29.64,NE,45,16.0,21.0,60,0.00,,,0.13,meteohub,2013-01-31 16:01:00,
2013-01-31 11:06:00,15.1,3.7,29.64,NE,45,16.0,21.0,60,0.00,,,0.13,meteohub,2013-01-31 16:06:00,
2013-01-31 11:11:00,15.1,3.7,29.64,NE,45,15.0,21.0,60,0.00,,,0.13,meteohub,2013-01-31 16:11:00,
2013-01-31 11:16:00,15.3,3.6,29.65,NE,45,10.0,19.0,59,0.00,,,0.13,meteohub,2013-01-31 16:16:00,
2013-01-31 11:21:00,15.4,3.7,29.65,NE,45,11.0,19.0,59,0.00,,,0.13,meteohub,2013-01-31 16:21:00,
2013-01-31 11:26:00,15.8,3.6,29.65,East,90,12.0,19.0,58,0.00,,,0.13,meteohub,2013-01-31 16:26:00,
2013-01-31 11:31:00,16.0,3.4,29.65,NE,45,12.0,15.0,57,0.00,,,0.13,meteohub,2013-01-31 16:31:00,
2013-01-31 11:36:00,16.2,3.6,29.65,NE,45,16.0,16.0,57,0.00,,,0.13,meteohub,2013-01-31 16:36:00,
2013-01-31 11:41:00,16.2,3.6,29.66,NE,45,15.0,17.0,57,0.00,,,0.13,meteohub,2013-01-31 16:41:00,
2013-01-31 11:46:00,16.3,4.1,29.65,NE,45,10.0,17.0,58,0.00,,,0.13,meteohub,2013-01-31 16:46:00,
2013-01-31 11:51:00,16.5,4.6,29.65,NE,45,8.0,17.0,59,0.00,,,0.13,meteohub,2013-01-31 16:51:00,
2013-01-31 11:56:00,16.7,4.8,29.66,ENE,68,11.0,15.0,59,0.00,,,0.13,meteohub,2013-01-31 16:56:00,
2013-01-31 12:01:00,16.5,5.0,29.66,NE,45,11.0,13.0,60,0.00,,,0.13,meteohub,2013-01-31 17:01:00,
2013-01-31 12:06:00,16.3,5.5,29.66,NE,45,14.0,15.0,62,0.00,,,0.13,meteohub,2013-01-31 17:06:00,
2013-01-31 12:11:00,16.2,5.4,29.66,NE,45,14.0,17.0,62,0.00,,,0.13,meteohub,2013-01-31 17:11:00,
2013-01-31 12:16:00,16.0,5.5,29.66,NE,45,15.0,17.0,63,0.00,,,0.13,meteohub,2013-01-31 17:16:00,
2013-01-31 12:21:00,16.2,6.1,29.67,East,90,17.0,17.0,64,0.00,,,0.13,meteohub,2013-01-31 17:21:00,
2013-01-31 12:26:00,16.2,6.1,29.67,NE,45,14.0,17.0,64,0.00,,,0.13,meteohub,2013-01-31 17:26:00,
2013-01-31 12:31:00,16.2,6.1,29.66,NE,45,17.0,18.0,64,0.00,,,0.13,meteohub,2013-01-31 17:31:00,
2013-01-31 12:36:00,16.0,5.5,29.67,NE,45,15.0,21.0,63,0.00,,,0.13,meteohub,2013-01-31 17:36:00,
2013-01-31 12:41:00,16.0,5.5,29.67,NE,45,15.0,21.0,63,0.00,,,0.13,meteohub,2013-01-31 17:41:00,
2013-01-31 12:46:00,16.2,5.7,29.67,NE,45,17.0,21.0,63,0.00,,,0.13,meteohub,2013-01-31 17:46:00,
2013-01-31 12:51:00,16.5,6.1,29.68,NE,45,15.0,20.0,63,0.00,,,0.13,meteohub,2013-01-31 17:51:00,
2013-01-31 12:56:00,16.7,5.9,29.67,NE,45,12.0,20.0,62,0.00,,,0.13,meteohub,2013-01-31 17:56:00,
2013-01-31 13:01:00,16.9,6.1,29.67,NE,45,12.0,17.0,62,0.00,,,0.13,meteohub,2013-01-31 18:01:00,
2013-01-31 13:06:00,16.9,6.1,29.68,NE,45,12.0,17.0,62,0.00,,,0.13,meteohub,2013-01-31 18:06:00,
2013-01-31 13:11:00,16.9,5.0,29.67,NE,45,13.0,17.0,59,0.00,,,0.13,meteohub,2013-01-31 18:11:00,
2013-01-31 13:16:00,16.9,5.0,29.68,ENE,68,14.0,15.0,59,0.00,,,0.13,meteohub,2013-01-31 18:16:00,
2013-01-31 13:21:00,16.9,4.3,29.68,ENE,68,12.0,15.0,57,0.00,,,0.13,meteohub,2013-01-31 18:21:00,
2013-01-31 13:26:00,16.9,4.3,29.68,NE,45,11.0,20.0,57,0.00,,,0.13,meteohub,2013-01-31 18:26:00,
2013-01-31 13:31:00,17.1,4.5,29.68,NE,45,12.0,20.0,57,0.00,,,0.13,meteohub,2013-01-31 18:31:00,
2013-01-31 13:36:00,16.9,4.6,29.68,ENE,68,13.0,15.0,58,0.00,,,0.13,meteohub,2013-01-31 18:36:00,
2013-01-31 13:41:00,16.9,4.6,29.68,NE,45,10.0,14.0,58,0.00,,,0.13,meteohub,2013-01-31 18:41:00,
2013-01-31 13:47:00,16.9,5.0,29.68,NE,45,11.0,14.0,59,0.00,,,0.13,meteohub,2013-01-31 18:47:00,
2013-01-31 13:52:00,16.9,5.7,29.68,ENE,68,8.0,14.0,61,0.00,,,0.13,meteohub,2013-01-31 18:52:00,
2013-01-31 13:57:00,16.9,5.4,29.68,NE,45,12.0,17.0,60,0.00,,,0.13,meteohub,2013-01-31 18:57:00,
2013-01-31 14:02:00,17.1,5.5,29.68,East,90,12.0,18.0,60,0.00,,,0.13,meteohub,2013-01-31 19:02:00,
2013-01-31 14:07:00,17.2,6.1,29.68,NE,45,13.0,18.0,61,0.00,,,0.13,meteohub,2013-01-31 19:07:00,
2013-01-31 14:12:00,17.4,5.9,29.68,NE,45,11.0,18.0,60,0.00,,,0.13,meteohub,2013-01-31 19:12:00,
2013-01-31 14:17:00,17.6,5.7,29.68,North,0,12.0,17.0,59,0.00,,,0.13,meteohub,2013-01-31 19:17:00,
2013-01-31 14:22:00,17.6,5.7,29.69,NE,45,14.0,17.0,59,0.00,,,0.13,meteohub,2013-01-31 19:22:00,
2013-01-31 14:27:00,17.6,5.0,29.70,East,90,12.0,17.0,57,0.00,,,0.13,meteohub,2013-01-31 19:27:00,
2013-01-31 14:32:00,17.8,5.2,29.69,NE,45,14.0,17.0,57,0.00,,,0.13,meteohub,2013-01-31 19:32:00,
2013-01-31 14:37:00,17.6,5.4,29.70,East,90,13.0,17.0,58,0.00,,,0.13,meteohub,2013-01-31 19:37:00,
2013-01-31 14:42:00,17.4,6.3,29.70,NE,45,14.0,17.0,61,0.00,,,0.13,meteohub,2013-01-31 19:42:00,
2013-01-31 14:47:00,17.6,5.7,29.70,NE,45,13.0,17.0,59,0.00,,,0.13,meteohub,2013-01-31 19:47:00,
2013-01-31 14:52:00,17.8,5.5,29.70,NE,45,13.0,17.0,58,0.00,,,0.13,meteohub,2013-01-31 19:52:00,
2013-01-31 14:57:00,18.0,5.4,29.70,NE,45,13.0,19.0,57,0.00,,,0.13,meteohub,2013-01-31 19:57:00,
2013-01-31 15:02:00,18.0,5.4,29.70,NE,45,16.0,19.0,57,0.00,,,0.13,meteohub,2013-01-31 20:02:00,
2013-01-31 15:07:00,18.0,5.4,29.71,NE,45,16.0,19.0,57,0.00,,,0.13,meteohub,2013-01-31 20:07:00,
2013-01-31 15:12:00,18.0,6.1,29.71,ENE,68,17.0,17.0,59,0.00,,,0.13,meteohub,2013-01-31 20:12:00,
2013-01-31 15:17:00,17.8,6.3,29.71,East,90,12.0,17.0,60,0.00,,,0.13,meteohub,2013-01-31 20:17:00,
2013-01-31 15:23:00,17.8,6.6,29.71,North,0,13.0,18.0,61,0.00,,,0.13,meteohub,2013-01-31 20:23:00,
2013-01-31 15:28:00,17.8,4.8,29.71,NNE,23,17.0,18.0,56,0.00,,,0.13,meteohub,2013-01-31 20:28:00,
2013-01-31 15:30:00,17.8,3.9,29.71,North,0,21.0,21.0,54,0.00,,,0.13,meteohub,2013-01-31 20:30:00,
2013-01-31 15:37:00,17.8,3.6,29.72,NE,45,23.0,24.0,53,0.00,,,0.13,meteohub,2013-01-31 20:37:00,
2013-01-31 15:45:00,17.4,5.5,29.73,NE,45,13.0,24.0,59,0.00,,,0.13,meteohub,2013-01-31 20:45:00,
2013-01-31 15:50:00,17.6,4.6,29.73,NE,45,19.0,23.0,56,0.00,,,0.13,meteohub,2013-01-31 20:50:00,
2013-01-31 15:55:00,17.8,3.6,29.73,NE,45,21.0,23.0,53,0.00,,,0.13,meteohub,2013-01-31 20:55:00,
2013-01-31 16:00:00,17.6,3.4,29.73,NE,45,17.0,23.0,53,0.00,,,0.13,meteohub,2013-01-31 21:00:00,
2013-01-31 16:06:00,17.6,4.6,29.73,East,90,15.0,23.0,56,0.00,,,0.13,meteohub,2013-01-31 21:06:00,
2013-01-31 16:11:00,17.6,4.6,29.74,NE,45,21.0,21.0,56,0.00,,,0.13,meteohub,2013-01-31 21:11:00,
2013-01-31 16:16:00,17.2,4.3,29.73,NE,45,20.0,21.0,56,0.00,,,0.13,meteohub,2013-01-31 21:16:00,
2013-01-31 16:21:00,17.1,4.1,29.74,ENE,68,17.0,22.0,56,0.00,,,0.13,meteohub,2013-01-31 21:21:00,
2013-01-31 16:26:00,17.2,4.6,29.74,NE,45,15.0,22.0,57,0.00,,,0.13,meteohub,2013-01-31 21:26:00,
2013-01-31 16:31:00,17.1,5.5,29.74,NE,45,15.0,22.0,60,0.00,,,0.13,meteohub,2013-01-31 21:31:00,
2013-01-31 16:32:00,17.2,5.7,29.74,NE,45,16.0,22.0,60,0.00,,,0.13,meteohub,2013-01-31 21:32:00,
2013-01-31 16:37:00,17.1,5.9,29.75,NE,45,15.0,20.0,61,0.00,,,0.13,meteohub,2013-01-31 21:37:00,
2013-01-31 16:42:00,17.1,5.9,29.75,NE,45,11.0,17.0,61,0.00,,,0.13,meteohub,2013-01-31 21:42:00,
2013-01-31 16:47:00,16.9,5.7,29.75,NE,45,15.0,17.0,61,0.00,,,0.13,meteohub,2013-01-31 21:47:00,
2013-01-31 16:52:00,16.9,6.1,29.75,NE,45,13.0,17.0,62,0.00,,,0.13,meteohub,2013-01-31 21:52:00,
2013-01-31 16:57:00,16.7,5.9,29.76,NE,45,11.0,16.0,62,0.00,,,0.13,meteohub,2013-01-31 21:57:00,
2013-01-31 17:02:00,16.7,5.9,29.76,NE,45,15.0,16.0,62,0.00,,,0.13,meteohub,2013-01-31 22:02:00,
2013-01-31 17:07:00,16.7,5.9,29.76,NE,45,15.0,15.0,62,0.00,,,0.13,meteohub,2013-01-31 22:07:00,
2013-01-31 17:12:00,16.7,5.9,29.76,NE,45,19.0,19.0,62,0.00,,,0.13,meteohub,2013-01-31 22:12:00,
2013-01-31 17:17:00,16.9,5.0,29.77,NE,45,13.0,19.0,59,0.00,,,0.13,meteohub,2013-01-31 22:17:00,
2013-01-31 17:22:00,16.7,5.5,29.77,NE,45,13.0,19.0,61,0.00,,,0.13,meteohub,2013-01-31 22:22:00,
2013-01-31 17:27:00,16.5,5.7,29.77,NE,45,17.0,19.0,62,0.00,,,0.13,meteohub,2013-01-31 22:27:00,
2013-01-31 17:32:00,16.5,5.4,29.77,East,90,15.0,17.0,61,0.00,,,0.13,meteohub,2013-01-31 22:32:00,
2013-01-31 17:37:00,16.5,4.3,29.78,ENE,68,15.0,21.0,58,0.00,,,0.13,meteohub,2013-01-31 22:37:00,
2013-01-31 17:40:00,16.5,4.3,29.78,East,90,14.0,21.0,58,0.00,,,0.13,meteohub,2013-01-31 22:40:00,
2013-01-31 17:47:00,16.5,4.3,29.78,East,90,19.0,21.0,58,0.00,,,0.13,meteohub,2013-01-31 22:47:00,
2013-01-31 17:55:00,16.5,5.0,29.78,NE,45,15.0,19.0,60,0.00,,,0.13,meteohub,2013-01-31 22:55:00,
2013-01-31 18:00:00,16.3,4.8,29.78,NE,45,14.0,19.0,60,0.00,,,0.13,meteohub,2013-01-31 23:00:00,
2013-01-31 18:05:00,16.5,5.0,29.79,East,90,11.0,17.0,60,0.00,,,0.13,meteohub,2013-01-31 23:05:00,
2013-01-31 18:10:00,16.5,5.0,29.79,East,90,11.0,17.0,60,0.00,,,0.13,meteohub,2013-01-31 23:10:00,
2013-01-31 18:15:00,16.3,5.5,29.80,East,90,25.0,25.0,62,0.00,,,0.13,meteohub,2013-01-31 23:15:00,
2013-01-31 18:20:00,16.0,5.2,29.80,NE,45,13.0,25.0,62,0.00,,,0.13,meteohub,2013-01-31 23:20:00,
2013-01-31 18:25:00,15.8,5.4,29.81,NE,45,13.0,25.0,63,0.00,,,0.13,meteohub,2013-01-31 23:25:00,
2013-01-31 18:30:00,16.0,5.5,29.81,NE,45,9.0,25.0,63,0.00,,,0.13,meteohub,2013-01-31 23:30:00,
2013-01-31 18:35:00,16.0,5.5,29.81,NE,45,15.0,17.0,63,0.00,,,0.13,meteohub,2013-01-31 23:35:00,
2013-01-31 18:40:00,16.2,5.7,29.81,NE,45,12.0,16.0,63,0.00,,,0.13,meteohub,2013-01-31 23:40:00,
2013-01-31 18:45:00,16.2,5.7,29.81,NE,45,17.0,17.0,63,0.00,,,0.13,meteohub,2013-01-31 23:45:00,
2013-01-31 18:50:00,16.2,5.4,29.81,NE,45,11.0,17.0,62,0.00,,,0.13,meteohub,2013-01-31 23:50:00,
2013-01-31 18:55:00,16.2,5.4,29.81,NE,45,18.0,21.0,62,0.00,,,0.13,meteohub,2013-01-31 23:55:00,
2013-01-31 19:00:00,16.2,5.4,29.81,NE,45,17.0,21.0,62,0.00,,,0.13,meteohub,2013-02-01 00:00:00,
2013-01-31 19:05:00,16.2,5.4,29.82,NE,45,17.0,21.0,62,0.00,,,0.00,meteohub,2013-02-01 00:05:00,
2013-01-31 19:10:00,15.6,5.9,29.82,NE,45,20.0,21.0,65,0.00,,,0.00,meteohub,2013-02-01 00:10:00,
2013-01-31 19:15:00,15.4,6.1,29.82,NE,45,18.0,22.0,66,0.00,,,0.00,meteohub,2013-02-01 00:15:00,
2013-01-31 19:20:00,15.4,6.4,29.82,NE,45,27.0,27.0,67,0.00,,,0.00,meteohub,2013-02-01 00:20:00,
2013-01-31 19:25:00,15.3,6.6,29.83,NE,45,23.0,27.0,68,0.00,,,0.00,meteohub,2013-02-01 00:25:00,
2013-01-31 19:30:00,15.3,7.0,29.83,NE,45,17.0,27.0,69,0.00,,,0.00,meteohub,2013-02-01 00:30:00,
2013-01-31 19:35:00,15.3,7.0,29.83,NE,45,23.0,27.0,69,0.00,,,0.00,meteohub,2013-02-01 00:35:00,
2013-01-31 19:40:00,15.3,7.0,29.83,NE,45,21.0,24.0,69,0.00,,,0.00,meteohub,2013-02-01 00:40:00,
2013-01-31 19:45:00,15.3,7.0,29.83,NE,45,22.0,27.0,69,0.00,,,0.00,meteohub,2013-02-01 00:45:00,
2013-01-31 19:50:00,15.3,6.6,29.83,North,0,23.0,27.0,68,0.00,,,0.00,meteohub,2013-02-01 00:50:00,
2013-01-31 19:55:00,15.1,6.1,29.84,NNE,23,21.0,27.0,67,0.00,,,0.00,meteohub,2013-02-01 00:55:00,
2013-01-31 20:00:00,15.1,6.1,29.84,NE,45,23.0,24.0,67,0.00,,,0.00,meteohub,2013-02-01 01:00:00,
2013-01-31 20:05:00,15.1,6.1,29.84,NE,45,19.0,25.0,67,0.00,,,0.00,meteohub,2013-02-01 01:05:00,
2013-01-31 20:10:00,15.1,5.7,29.85,NE,45,18.0,25.0,66,0.00,,,0.00,meteohub,2013-02-01 01:10:00,
2013-01-31 20:15:00,15.1,5.7,29.85,NNE,23,20.0,25.0,66,0.00,,,0.00,meteohub,2013-02-01 01:15:00,
2013-01-31 20:20:00,15.3,5.9,29.85,NE,45,18.0,26.0,66,0.00,,,0.00,meteohub,2013-02-01 01:20:00,
2013-01-31 20:25:00,15.3,5.5,29.85,NE,45,21.0,26.0,65,0.00,,,0.00,meteohub,2013-02-01 01:25:00,
2013-01-31 20:30:00,15.3,5.5,29.85,NE,45,22.0,26.0,65,0.00,,,0.00,meteohub,2013-02-01 01:30:00,
2013-01-31 20:35:00,15.3,5.5,29.85,NE,45,18.0,25.0,65,0.00,,,0.00,meteohub,2013-02-01 01:35:00,
2013-01-31 20:40:00,15.3,5.5,29.85,NE,45,18.0,25.0,65,0.00,,,0.00,meteohub,2013-02-01 01:40:00,
2013-01-31 20:45:00,15.3,5.5,29.85,NE,45,20.0,25.0,65,0.00,,,0.00,meteohub,2013-02-01 01:45:00,
2013-01-31 20:50:00,15.3,5.5,29.86,NE,45,20.0,25.0,65,0.00,,,0.00,meteohub,2013-02-01 01:50:00,
2013-01-31 20:55:00,15.3,5.5,29.86,NE,45,23.0,23.0,65,0.00,,,0.00,meteohub,2013-02-01 01:55:00,
2013-01-31 21:00:00,15.3,5.5,29.86,NE,45,20.0,26.0,65,0.00,,,0.00,meteohub,2013-02-01 02:00:00,
2013-01-31 21:05:00,15.3,5.5,29.86,NE,45,20.0,26.0,65,0.00,,,0.00,meteohub,2013-02-01 02:05:00,
2013-01-31 21:11:00,15.3,5.5,29.86,North,0,18.0,26.0,65,0.00,,,0.00,meteohub,2013-02-01 02:11:00,
2013-01-31 21:16:00,15.3,5.9,29.86,NE,45,15.0,20.0,66,0.00,,,0.00,meteohub,2013-02-01 02:16:00,
2013-01-31 21:20:00,15.3,5.9,29.86,NE,45,23.0,24.0,66,0.00,,,0.00,meteohub,2013-02-01 02:20:00,
2013-01-31 21:25:00,15.3,5.9,29.86,NE,45,21.0,24.0,66,0.00,,,0.00,meteohub,2013-02-01 02:25:00,
2013-01-31 21:31:00,15.3,5.9,29.86,NE,45,18.0,23.0,66,0.00,,,0.00,meteohub,2013-02-01 02:31:00,
2013-01-31 21:36:00,15.3,5.9,29.86,NE,45,15.0,23.0,66,0.00,,,0.00,meteohub,2013-02-01 02:36:00,
2013-01-31 21:41:00,15.3,5.5,29.87,NE,45,19.0,23.0,65,0.00,,,0.00,meteohub,2013-02-01 02:41:00,
2013-01-31 21:46:00,15.3,5.5,29.87,NE,45,17.0,23.0,65,0.00,,,0.00,meteohub,2013-02-01 02:46:00,
2013-01-31 21:51:00,15.3,5.5,29.87,NE,45,18.0,21.0,65,0.00,,,0.00,meteohub,2013-02-01 02:51:00,
2013-01-31 21:56:00,15.3,5.5,29.88,NNE,23,19.0,27.0,65,0.00,,,0.00,meteohub,2013-02-01 02:56:00,
2013-01-31 22:01:00,15.3,5.5,29.88,NE,45,18.0,27.0,65,0.00,,,0.00,meteohub,2013-02-01 03:01:00,
2013-01-31 22:06:00,15.3,5.4,29.88,NE,45,20.0,27.0,64,0.00,,,0.00,meteohub,2013-02-01 03:06:00,
2013-01-31 22:11:00,15.3,5.4,29.88,NE,45,15.0,21.0,64,0.00,,,0.00,meteohub,2013-02-01 03:11:00,
2013-01-31 22:16:00,15.3,5.4,29.88,NE,45,22.0,22.0,64,0.00,,,0.00,meteohub,2013-02-01 03:16:00,
2013-01-31 22:21:00,15.3,5.4,29.88,NNW,338,21.0,22.0,64,0.00,,,0.00,meteohub,2013-02-01 03:21:00,
2013-01-31 22:26:00,15.1,5.4,29.88,NE,45,21.0,25.0,65,0.00,,,0.00,meteohub,2013-02-01 03:26:00,
2013-01-31 22:31:00,15.3,5.4,29.89,NE,45,17.0,25.0,64,0.00,,,0.00,meteohub,2013-02-01 03:31:00,
2013-01-31 22:36:00,15.1,5.2,29.88,NE,45,21.0,25.0,64,0.00,,,0.00,meteohub,2013-02-01 03:36:00,
2013-01-31 22:41:00,15.1,5.2,29.89,NE,45,19.0,21.0,64,0.00,,,0.00,meteohub,2013-02-01 03:41:00,
2013-01-31 22:46:00,15.1,5.2,29.89,NE,45,21.0,21.0,64,0.00,,,0.00,meteohub,2013-02-01 03:46:00,
2013-01-31 22:51:00,15.1,5.4,29.89,NE,45,23.0,24.0,65,0.00,,,0.00,meteohub,2013-02-01 03:51:00,
2013-01-31 22:56:00,15.1,5.4,29.89,NE,45,23.0,24.0,65,0.00,,,0.00,meteohub,2013-02-01 03:56:00,
2013-01-31 23:01:00,15.1,5.4,29.90,NE,45,17.0,24.0,65,0.00,,,0.00,meteohub,2013-02-01 04:01:00,
2013-01-31 23:06:00,15.1,5.4,29.89,NE,45,17.0,23.0,65,0.00,,,0.00,meteohub,2013-02-01 04:06:00,
2013-01-31 23:11:00,14.9,5.5,29.89,NE,45,18.0,23.0,66,0.00,,,0.00,meteohub,2013-02-01 04:11:00,
2013-01-31 23:16:00,14.7,5.4,29.89,NNE,23,18.0,20.0,66,0.00,,,0.00,meteohub,2013-02-01 04:16:00,
2013-01-31 23:21:00,14.7,5.7,29.90,North,0,15.0,22.0,67,0.00,,,0.00,meteohub,2013-02-01 04:21:00,
2013-01-31 23:26:00,14.9,6.3,29.90,NE,45,16.0,22.0,68,0.00,,,0.00,meteohub,2013-02-01 04:26:00,
2013-01-31 23:31:00,14.9,6.3,29.90,NE,45,16.0,22.0,68,0.00,,,0.00,meteohub,2013-02-01 04:31:00,
2013-01-31 23:36:00,14.9,6.6,29.90,NE,45,15.0,19.0,69,0.00,,,0.00,meteohub,2013-02-01 04:36:00,
2013-01-31 23:41:00,14.9,6.6,29.90,East,90,14.0,19.0,69,0.00,,,0.00,meteohub,2013-02-01 04:41:00,
2013-01-31 23:46:00,14.9,6.6,29.90,NE,45,14.0,21.0,69,0.00,,,0.00,meteohub,2013-02-01 04:46:00,
2013-01-31 23:51:00,14.9,6.6,29.90,NE,45,19.0,21.0,69,0.00,,,0.00,meteohub,2013-02-01 04:51:00,
2013-01-31 23:56:00,14.9,6.6,29.90,NE,45,20.0,21.0,69,0.00,,,0.00,meteohub,2013-02-01 04:56:00,